Location: N�rnberg
(49.4471°N, 11.0632°E)
Time: 19:20:08
(UTC+02:00)

CAS-6 - Visible Passes

Search period start: 11 April 2026 00:00
Search period end: 21 April 2026 00:00
Orbit: 600 x 618 km, 97.8° (Epoch: 11 April)

Date Brightness Start Highest point End Pass type
(mag) Time Alt. Az. Time Alt. Az. Time Alt. Az.
11 Apr ? 00:35:06 11° WNW 00:35:06 11° WNW 00:35:57 10° WNW visible
11 Apr ? 21:35:12 14° ENE 21:36:21 16° ENE 21:38:54 10° NNE visible
11 Apr ? 23:12:08 66° WNW 23:12:08 66° WNW 23:16:03 10° NNW visible
12 Apr ? 21:49:09 19° E 21:50:06 20° ENE 21:53:15 10° NNE visible
12 Apr ? 23:26:05 50° WNW 23:26:05 50° WNW 23:29:54 10° NNW visible
13 Apr ? 22:03:07 25° E 22:03:52 26° ENE 22:07:28 10° N visible
13 Apr ? 23:40:03 37° W 23:40:03 37° W 23:43:41 10° NNW visible
14 Apr ? 22:17:05 33° E 22:17:41 34° ENE 22:21:36 10° N visible
14 Apr ? 23:54:00 28° W 23:54:00 28° W 23:57:22 10° NW visible
15 Apr ? 22:31:02 44° E 22:31:30 46° ENE 22:35:39 10° N visible
16 Apr ? 00:07:58 21° W 00:07:58 21° W 00:10:57 10° NW visible
16 Apr ? 22:45:00 60° E 22:45:22 63° ENE 22:49:39 10° N visible
17 Apr ? 00:21:56 16° W 00:21:56 16° W 00:24:20 10° NW visible
17 Apr ? 21:22:13 10° E 21:24:02 12° ENE 21:25:52 10° NNE visible
17 Apr ? 22:58:58 77° SE 22:59:14 86° E 23:03:36 10° NNW visible
18 Apr ? 00:35:53 11° W 00:35:53 11° W 00:37:15 10° WNW visible
18 Apr ? 21:35:59 13° E 21:37:45 16° ENE 21:40:25 10° NNE visible
18 Apr ? 23:12:55 68° SW 23:13:10 70° WSW 23:17:29 10° NNW visible
19 Apr ? 21:49:57 17° E 21:51:31 21° ENE 21:54:45 10° NNE visible
19 Apr ? 23:26:53 50° WSW 23:27:06 50° W 23:31:20 10° NNW visible
20 Apr ? 22:03:55 23° E 22:05:17 27° ENE 22:08:56 10° N visible
20 Apr ? 23:40:51 36° WSW 23:41:04 37° W 23:45:06 10° NNW visible
